Location: Orange Harbor Mobile Home Park
(26.6923°N, 81.7937°W)
Time: 08:41:23
(UTC+00:00)

Cosmos 2322 Rocket - Pass Details

Date: 19 September 2020
Orbit: 831 x 852 km, 71.0° (Epoch: 29 October)

Event Time Altitude Azimuth Distance (km) Brightness Sun altitude
Exits shadow 09:22:06 29° 180° (S) 1,489 3.3 -25.6°
Maximum altitude 09:24:58 66° 106° (ESE) 915 2.5 -25.0°
Drops below altitude 10° 09:30:35 10° 25° (NNE) 2,468 5.1 -23.8°
Sets 09:33:03 0° 23° (NNE) 3,409 5.9 -23.3°
